Theta_e
343 347 347 347 347 347 346 346 346 346 346 346 343 339 345 347 347 345 345 343 347 345 347 345 347 346 345 343 341 339 342 340 339
344 345 349 349 348 347 347 347 347 347 346 345 341 337 341 346 345 345 344 347 346 344 347 346 346 347 348 341 341 343 343 340 335
337 344 347 348 347 348 348 348 347 347 347 344 337 332 333 343 344 343 343 345 344 347 347 347 346 348 348 347 339 342 343 340 342
334 339 344 346 347 348 348 349 347 347 347 344 343 339 339 339 339 343 338 342 344 347 347 346 348 347 347 339 342 346 346 345 338
333 336 341 344 344 346 347 347 347 347 346 344 344 341 339 340 338 340 340 341 341 347 347 347 347 346 344 340 342 347 347 344 344
329 333 337 340 342 343 345 346 347 347 346 346 345 344 341 342 341 342 343 344 344 345 344 347 348 346 345 341 342 344 346 345 343
328 331 335 339 341 342 343 344 345 345 344 342 343 341 344 344 343 343 344 345 343 342 342 341 343 341 338 342 345 348 347 346 347
322 324 327 331 337 341 341 342 342 343 341 335 334 341 338 340 339 343 343 344 345 346 346 346 345 345 343 341 345 344 348 347 349
321 321 320 320 322 323 329 335 341 342 342 341 339 340 343 341 339 340 341 342 342 344 345 346 347 346 346 350 346 345 347 349 346
320 321 321 321 320 320 322 321 322 328 334 339 340 340 341 341 339 339 340 339 336 339 341 344 347 348 347 349 348 349 346 345 347
319 319 320 321 321 321 321 322 322 323 323 320 325 329 338 341 341 341 339 339 337 339 335 342 344 345 347 349 349 347 347 347 345
319 318 319 320 321 320 321 322 322 324 324 323 321 321 320 325 331 338 337 335 341 341 340 340 344 344 344 345 347 349 348 347 348
318 317 318 319 319 320 319 320 321 322 322 322 321 320 319 318 317 318 324 331 328 331 335 340 341 342 344 345 345 347 349 351 350
318 317 317 317 317 318 317 316 316 318 319 319 319 319 318 317 315 315 315 315 316 317 317 318 328 338 337 341 344 345 347 349 349
316 315 314 313 313 313 312 312 312 312 313 313 312 312 311 311 311 311 311 311 312 312 313 314 316 317 316 317 325 333 336 338 343
314 314 313 313 312 312 312 312 311 310 309 308 308 308 308 308 309 309 309 310 310 311 311 312 313 315 317 318 319 331 337 343 344
313 313 313 312 312 311 310 310 309 309 307 306 306 305 305 305 306 307 307 308 308 309 310 312 313 314 316 318 319 320 327 333 335
313 313 312 312 310 307 307 307 306 305 305 304 304 304 304 305 305 305 306 306 306 307 307 308 309 310 312 315 315 317 319 322 326
312 312 311 310 310 308 306 306 305 304 303 302 301 302 303 304 304 305 305 305 306 306 306 306 307 307 308 309 312 315 317 319 321
312 311 311 311 310 309 307 306 303 302 301 300 299 300 300 301 302 302 303 304 304 305 305 305 306 306 307 307 307 308 310 313 317
Wind_Speed
10 26 30 30 32 35 38 37 33 27 24 22 19 24 28 23 20 19 16 15 16 14 12 12 15 16 11 11 12 16 16 18 15
9 11 14 24 30 32 36 35 32 30 25 21 19 24 30 27 23 20 16 15 18 15 13 13 13 14 11 10 13 13 15 16 18
8 9 13 19 23 28 30 32 34 32 26 20 20 23 26 30 25 20 20 16 15 13 13 10 12 17 15 14 13 12 11 13 15
8 8 9 17 22 21 25 22 33 31 27 26 22 21 22 26 27 24 19 20 18 17 15 14 12 15 12 14 16 15 12 10 13
7 7 7 10 17 22 28 13 27 29 32 25 23 22 21 20 20 21 21 22 21 18 16 15 13 10 15 14 17 16 15 12 13
6 7 8 8 8 18 22 18 20 24 23 25 21 20 23 24 23 23 22 22 24 23 20 20 19 17 14 15 16 17 15 12 11
10 9 10 10 10 10 12 14 17 18 17 11 17 22 13 18 23 25 23 23 23 23 23 20 20 20 19 18 16 18 17 16 14
15 14 14 12 12 10 10 11 14 18 17 9 7 21 19 22 11 18 26 26 25 23 23 24 24 22 18 18 19 18 19 20 19
16 18 21 20 19 18 15 12 9 6 8 11 13 16 19 18 21 16 23 24 26 22 22 23 21 23 22 21 21 20 20 20 21
21 19 18 17 19 19 18 17 15 13 9 8 8 15 16 12 16 16 13 23 21 25 21 19 20 24 23 23 24 22 22 21 21
25 22 20 17 17 19 19 15 16 16 15 13 11 10 10 13 15 8 11 20 20 23 24 19 22 25 27 26 25 24 24 23 24
27 23 21 18 16 15 16 15 13 13 11 8 8 8 7 7 7 13 16 18 19 22 24 26 22 25 26 29 28 26 24 27 29
24 20 17 17 15 12 9 10 10 10 8 5 4 4 3 3 4 5 9 12 10 12 15 18 21 24 26 27 29 26 27 28 28
20 16 14 11 9 8 7 5 7 9 8 8 6 6 7 7 7 8 9 9 11 11 10 11 13 20 18 19 19 19 19 19 25
18 15 12 9 8 5 3 3 5 7 8 7 7 9 10 10 10 11 12 12 12 12 11 10 8 8 8 8 7 10 13 13 19
17 15 12 8 4 3 2 4 4 4 5 7 7 6 7 7 6 8 10 11 11 11 12 13 13 13 12 10 11 8 6 8 12
18 15 13 9 6 8 7 7 7 7 7 8 9 8 7 8 8 7 7 8 10 11 12 14 15 16 18 19 17 16 16 17 16
21 18 13 8 7 7 7 7 7 7 8 8 8 9 8 8 9 9 10 10 11 11 11 14 17 19 22 25 26 23 23 23 25
20 16 10 8 5 3 5 7 8 8 8 8 9 10 10 10 10 11 12 13 13 13 15 16 16 18 22 25 30 34 32 30 30
17 13 11 11 6 6 7 8 7 5 5 10 11 11 11 11 12 13 15 17 20 22 17 20 20 21 23 23 26 28 34 36 37
Wind_Direction
220 201 203 193 199 202 206 207 204 210 216 218 215 208 207 212 216 223 232 236 218 217 204 194 200 219 234 233 217 221 225 224 232
98 171 201 203 205 205 208 206 214 213 214 224 220 209 208 214 221 225 222 224 215 215 208 218 215 218 227 234 221 218 219 233 230
70 109 151 175 188 197 204 213 211 215 218 225 221 211 211 215 221 226 213 208 208 212 218 237 236 238 244 247 209 209 233 229 226
91 105 148 164 179 189 201 215 207 206 217 219 222 218 216 218 223 228 228 218 218 222 224 236 247 237 243 232 200 208 227 231 234
97 109 133 179 178 182 192 197 202 206 213 217 212 214 214 214 217 228 232 231 225 228 229 232 234 240 227 235 216 216 225 227 235
108 130 135 119 178 198 184 170 172 191 201 209 201 206 215 221 224 229 235 238 231 228 235 237 242 242 239 230 230 227 223 227 234
117 123 131 143 135 145 171 191 191 187 190 241 243 236 233 216 232 228 227 232 232 233 237 243 249 246 246 238 237 237 238 242 241
113 108 112 117 132 158 147 149 164 177 198 185 225 242 243 244 272 241 227 228 232 229 231 236 249 251 249 245 242 241 248 253 255
123 112 102 98 100 102 109 121 147 161 186 202 221 232 228 232 246 281 256 232 233 238 233 237 237 244 246 250 252 249 249 256 255
126 121 110 106 99 96 95 94 100 103 113 128 157 190 195 203 237 256 267 251 262 257 251 246 245 251 248 249 250 253 253 252 252
129 122 119 112 103 103 100 97 91 94 95 103 122 126 155 210 224 229 224 248 261 237 243 266 257 254 255 252 249 247 251 254 254
134 128 129 130 132 125 127 119 118 124 128 126 125 127 132 141 166 209 223 242 262 252 246 253 252 250 249 254 256 255 253 253 254
147 147 141 138 145 152 151 136 151 163 158 169 164 159 165 172 184 196 215 232 247 253 262 264 260 257 258 254 254 257 256 258 261
154 157 161 170 176 191 194 208 211 216 214 221 242 254 257 256 251 244 244 246 258 269 272 283 275 267 280 275 274 275 269 262 266
156 156 155 169 183 181 188 205 223 226 241 252 267 275 273 269 265 262 259 258 259 264 270 268 273 274 264 261 283 276 269 267 266
155 162 168 181 191 189 244 283 276 260 261 280 288 288 286 287 286 280 279 277 274 273 271 276 278 279 279 267 248 251 274 286 272
171 177 182 193 222 239 243 261 278 290 297 307 313 312 302 296 297 298 302 300 297 293 287 281 282 280 279 277 273 265 264 257 260
180 179 189 218 240 230 242 263 281 292 305 318 324 327 325 321 318 314 311 312 310 307 303 296 290 285 282 284 278 274 273 277 276
188 190 199 211 202 250 273 283 298 306 324 337 338 334 331 330 327 326 324 318 310 312 307 302 297 290 285 278 275 277 278 276 276
198 200 202 204 236 278 308 301 300 314 352 355 349 347 344 342 338 334 328 324 322 315 305 308 303 299 296 290 286 279 274 270 269